{"data":{"norad_id":58721,"intl_designator":"2024-002S","name":"STARLINK-30972","alt_names":[],"object_type":"PAYLOAD","status":"ACTIVE","operator":null,"country":"US","launch_date":"2024-01-03","launch_site_code":"AFWTR","launch_vehicle":null,"mission":null,"orbit_class":"UNKNOWN","rcs_meters":null,"size_class":null,"mass_kg":null,"dimensions":null,"purposes":["comms"],"wikipedia_slug":null,"has_3d_model":false,"image_url":null,"decayed_at":null,"tle_current":{"epoch":"2026-05-25T05:15:22.348224Z","epoch_age_seconds":52296,"freshness":"FRESH","line1":"1 58721U 24002S   26145.21900866 -.00000983  00000+0 -21087-4 0  9994","line2":"2 58721  53.1582 234.3662 0001044  86.6105 273.5015 15.30183856133730","mean_motion":15.30183856,"eccentricity":0.0001044,"inclination_deg":53.1582,"raan_deg":234.3662,"arg_perigee_deg":86.6105,"mean_anomaly_deg":273.5015,"bstar":-2.1087e-5,"rev_number":13373,"period_min":94.1063385523,"perigee_km":474.54777792866,"apogee_km":475.97876790564,"semimajor_km":6853.4002729171,"source":"CELESTRAK","updated_at":"2026-05-25T13:38:18.718057Z"}}}